TimeAST,TemperatureF,Dew PointF,Humidity,Sea Level PressureIn,VisibilityMPH,Wind Direction,Wind SpeedMPH,Gust SpeedMPH,PrecipitationIn,Events,Conditions,WindDirDegrees,DateUTC
12:00 AM,-9999,-9999,N/A,30.04,-9999.0,ENE,12.7,-,N/A,,Unknown,60,2013-03-19 04:00:00
1:00 AM,-9999,-9999,N/A,30.01,-9999.0,ENE,15.0,-,N/A,,Unknown,60,2013-03-19 05:00:00
2:00 AM,,,,,,ENE,15.0,,,,,70,2013-03-19 06:00:00
2:00 AM,-9999,-9999,N/A,30.01,-9999.0,ENE,15.0,-,N/A,,Unknown,60,2013-03-19 06:00:00
3:00 AM,-9999,-9999,N/A,29.98,-9999.0,ENE,15.0,-,N/A,,Unknown,60,2013-03-19 07:00:00
4:00 AM,-9999,-9999,N/A,29.98,-9999.0,ENE,11.5,-,N/A,,Unknown,60,2013-03-19 08:00:00
5:00 AM,,32,,,,ENE,13.8,,,,,60,2013-03-19 09:00:00
5:00 AM,-9999,-9999,N/A,29.98,-9999.0,ENE,13.8,-,N/A,,Unknown,60,2013-03-19 09:00:00
6:00 AM,-9999,-9999,N/A,29.98,-9999.0,ENE,12.7,-,N/A,,Unknown,60,2013-03-19 10:00:00
7:00 AM,78.8,71.6,78,30.01,6.2,ENE,13.8,-,N/A,,Partly Cloudy,60,2013-03-19 11:00:00
8:00 AM,84.2,71.6,66,30.04,6.2,ENE,15.0,-,N/A,,Partly Cloudy,60,2013-03-19 12:00:00
9:00 AM,84.2,71.6,66,30.04,6.2,ENE,16.1,-,N/A,,Partly Cloudy,60,2013-03-19 13:00:00
11:00 AM,-9999,-9999,N/A,30.04,-9999.0,ENE,15.0,-,N/A,,Unknown,60,2013-03-19 15:00:00
12:00 PM,-9999,-9999,N/A,30.01,-9999.0,ENE,15.0,-,N/A,,Unknown,60,2013-03-19 16:00:00
1:00 PM,-9999,-9999,N/A,30.01,-9999.0,ENE,16.1,-,N/A,,Unknown,70,2013-03-19 17:00:00
2:00 PM,-9999,-9999,N/A,29.98,-9999.0,NE,16.1,-,N/A,,Unknown,50,2013-03-19 18:00:00
3:00 PM,-9999,-9999,N/A,29.95,6.2,ENE,17.3,-,N/A,,Scattered Clouds,70,2013-03-19 19:00:00
4:00 PM,-9999,-9999,N/A,29.95,-9999.0,ENE,16.1,-,N/A,,Unknown,60,2013-03-19 20:00:00
5:00 PM,-9999,-9999,N/A,29.95,-9999.0,ENE,15.0,-,N/A,,Unknown,60,2013-03-19 21:00:00
6:00 PM,-9999,-9999,N/A,29.95,-9999.0,ENE,13.8,-,N/A,,Unknown,60,2013-03-19 22:00:00
7:00 PM,-9999,-9999,N/A,29.98,-9999.0,ENE,12.7,-,N/A,,Unknown,60,2013-03-19 23:00:00
8:00 PM,,32,,,,ENE,13.8,,,,Clear,60,2013-03-20 00:00:00
8:00 PM,-9999,-9999,N/A,29.98,-9999.0,ENE,13.8,-,N/A,,Unknown,60,2013-03-20 00:00:00
9:00 PM,-9999,-9999,N/A,29.98,-9999.0,ENE,11.5,-,N/A,,Unknown,60,2013-03-20 01:00:00
10:00 PM,-9999,-9999,N/A,30.01,-9999.0,ENE,13.8,-,N/A,,Unknown,60,2013-03-20 02:00:00